Regional Weather Roundup
Issued by NWS

Home | Current Version | Previous Version | Graphics & Text | Print | Product List | Glossary On
Versions: 1 2 3 4 5 6 7 8 9 10 11 12 13 14 15 16 17 18 19 20 21 22 23 24 25 26 27 28 29 30 31 32 33 34 35 36 37 38 39 40 41 42 43 44 45 46 47 48 49 50
000
ASUS43 KMKX 080221
RWRWI

WISCONSIN REGIONAL WEATHER ROUNDUP
NATIONAL WEATHER SERVICE MILWAUKEE/SULLIVAN WI
800 PM CST WED DEC 07 2016

NOTE: "FAIR" INDICATES FEW OR NO CLOUDS BELOW 12,000 FEET WITH NO
SIGNIFICANT WEATHER AND/OR OBSTRUCTIONS TO VISIBILITY.

WIZ001-002-006>008-014>016-023>028-080300-
NORTHWEST WISCONSIN

CITY           SKY/WX    TMP DP  RH WIND       PRES   REMARKS
SUPERIOR ARPT  CLOUDY    19  13  79 W15G23    29.95S WCI   4
ASHLAND        LGT SNOW  18  14  84 SW17      29.91S FOG     WCI   3
HAYWARD        FLURRIES  16   9  74 W14       29.95R WCI   2
SIREN          FLURRIES  17  10  75 W12       30.02R WCI   4
CUMBERLAND     LGT SNOW  16  10  79 W16G23    30.00R WCI   0
RICE LAKE      FLURRIES  17  10  74 W17G28    30.03R WCI   2
CHETEK         CLOUDY    17  10  72 MISG      30.02R
LADYSMITH      CLOUDY    19  12  75 W16       29.99R WCI   4
EAU CLAIRE     CLOUDY    18  10  71 W18G24    30.04S WCI   2
MENOMONIE      CLOUDY    19  11  70 W18G26    30.06R WCI   4
NEW RICHMOND   FLURRIES  17   8  70 W15       30.07R WCI   2
OSCEOLA        FLURRIES  17  10  74 W14G24    30.10S WCI   3
$$

WIZ003>005-009-010-017-018-080300-
NORTH CENTRAL WISCONSIN

CITY           SKY/WX    TMP DP  RH WIND       PRES   REMARKS
MANITOWISH WTR LGT SNOW  16  12  86 W14G21    29.85R WCI   1
ARBOR VITAE    LGT SNOW  18  13  81 W14       29.86S WCI   4
WOODRUFF       LGT SNOW  18  13  81 W14       29.86S WCI   4
RHINELANDER    FLURRIES  18  12  77 W14G23    29.88R WCI   4
EAGLE RIVER    LGT SNOW  17  11  78 W17G23    29.84S WCI   1
LAND O LAKES   LGT SNOW  17  13  84 W8        29.85R WCI   7
PHILLIPS       FLURRIES  16  12  84 W9        29.90S WCI   4
TOMAHAWK       FLURRIES  17  11  77 W13G20    29.91S WCI   3
MEDFORD        FLURRIES  16   9  75 W15G25    29.94S WCI   1
MERRILL        CLOUDY    18  11  75 W23G30    29.93S WCI   0
$$

WIZ029-030-035-036-043>047-080300-
CENTRAL WISCONSIN

CITY           SKY/WX    TMP DP  RH WIND       PRES   REMARKS
WAUSAU         FLURRIES  18  12  77 W13G22    29.95R WCI   5
MOSINEE        FLURRIES  18  12  79 W17G30    29.97S WCI   2
MARSHFIELD     CLOUDY    18  10  71 W18G29    29.98S WCI   2
STEVENS POINT  CLOUDY    18  10  73 W15G28    29.99F WCI   3
WAUPACA        CLOUDY    23  13  65 W17       30.01S WCI   9
WAUTOMA        FLURRIES  20  13  74 W20G28    30.04S WCI   4
WISC RAPIDS    CLOUDY    19  12  74 W12G22    30.03S WCI   7
CAMP DOUGLAS   FLURRIES  19  12  73 W16       30.06S WCI   5
$$

WIZ011>013-019>022-031-037>040-048>050-080300-
NORTHEAST WISCONSIN

CITY           SKY/WX    TMP DP  RH WIND       PRES   REMARKS
ANTIGO         CLOUDY    17  11  79 W16G28    29.90S WCI   1
SHAWANO        CLOUDY    24  14  65 W14G21    29.96F WCI  11
OCONTO         CLOUDY    23  12  63 W16G28    29.96S WCI   9
STURGEON BAY   CLOUDY    23  14  68 W18G28    29.94F WCI   9
GREEN BAY      CLOUDY    25  15  66 W20G28    29.98R WCI  11
MANITOWOC      FLURRIES  23  15  71 MISG      30.00S
APPLETON       CLOUDY    21  10  63 W23G30    29.98S WCI   5
CLINTONVILLE   CLOUDY    23  12  63 W12G18    29.98S WCI  12
OSHKOSH        CLOUDY    22  13  68 W14G20    30.01S WCI   9
$$

WIZ032>034-041-042-053>061-080300-
SOUTHWEST WISCONSIN

CITY           SKY/WX    TMP DP  RH WIND       PRES   REMARKS
LA CROSSE      CLOUDY    22  11  62 W20       30.12S WCI   7
SPARTA         CLOUDY    20  13  72 W15G22    30.09S WCI   7
VIROQUA        CLOUDY    19  13  77 W12       30.08S WCI   7
BOSCOBEL       LGT SNOW  24  15  68 W10G21    30.15R WCI  14
PRAIRIE DU CHI CLOUDY    24  11  58 W17G28    30.16S WCI  10
PLATTEVILLE    CLOUDY    23  16  74 W16G24    30.14S WCI   9
$$

WIZ056-057-062-063-064-067-068-080300-
SOUTH CENTRAL WISCONSIN

CITY           SKY/WX    TMP DP  RH WIND       PRES   REMARKS
REEDSBURG      FLURRIES  20  12  73 W14G21    30.08S WCI   6
BARABOO/DELLS  FLURRIES  19  12  72 W15       30.07S WCI   5
LONE ROCK      CLOUDY    22  13  68 W12       30.13R WCI  10
MINERAL POINT  FLURRIES  23  18  80 W18G25    30.10S WCI   9
MADISON        LGT SNOW  20  12  71 W9G18     30.09R WCI   9
MIDDLETON      CLOUDY    22  15  73 W20G26    30.10R WCI   7
WATERTOWN      FLURRIES  20  14  76 W17G24    30.08S WCI   6
MONROE         FLURRIES  21  16  79 W21       30.11F WCI   6
JANESVILLE     CLOUDY    23  16  74 W15G25    30.12S WCI  10
$$

WIZ051-052-058>065-066-070>072-080300-
SOUTHEAST WISCONSIN

CITY           SKY/WX    TMP DP  RH WIND       PRES   REMARKS
MILWAUKEE      FLURRIES  23  12  62 W22G30    30.09R WCI   8
WAUKESHA       CLOUDY    19  12  73 W15G26    30.08R WCI   5
MILWAUKEE/TIMM CLOUDY    21  12  68 W15G26    30.08R WCI   8
RACINE         CLOUDY    22  12  65 W17G29    30.10R WCI   8
BURLINGTON     FLURRIES  21  15  76 W16G25    30.10S WCI   7
KENOSHA        CLOUDY    22  14  71 W26G33    30.09R WCI   5
FOND DU LAC    MIX PCPN  22  12  65 W13G23    30.03S WCI  10
SHEBOYGAN      CLOUDY    22  13  68 W17G25    30.02S WCI   8
WEST BEND      CLOUDY    21  14  73 W17G29    30.04R WCI   7
JUNEAU         CLOUDY    19  11  71 W20G25    30.07S WCI   4
$$

LSZ147-162-080300-
LAKE SUPERIOR

STATION/POSITION TIME  TEMP    WIND        PRES    WAVE
                       AIR SEA DIR/SP/G            HT/PER
                 (UTC) (F)     (DEG/KT/KT) (MB)    (FT/S)
DEVILS ISLAND    0200   25     270/ 29/ 34 1012.0R
PORT WING        0130   20     230/ 15/ 24 1013.2S
SAXON HARBOR     0140   20     230/  8/ 15 1012.5S
$$

LMZ867-665-643>646-080300-
LAKE MICHIGAN

STATION/POSITION TIME  TEMP    WIND        PRES    WAVE
                       AIR SEA DIR/SP/G            HT/PER
                 (UTC) (F)     (DEG/KT/KT) (MB)    (FT/S)
CHAMBERS ISLAND  0140   24     230/ 14/ 23 1012.9S
NORTHPORT PIER   0149   25     240/  9/ 24 1012.9R
SISTER BAY       0151   26     250/ 26/ 29   N/A
ALGOMA LAKESHORE 0106          270/ 15/ 24   N/A
KEWAUNEE LAKESHO 0154   24     290/ 13/ 17 1014.6R
SHEBOYGAN LAKESH 0200   23     250/ 13/ 18 1017.6R
PORT WASHINGTON  0130   23     280/ 11/ 17 1018.6S
MILWAUKEE LAKESH 0200   22     260/ 20/ 24   N/A
KENOSHA   LAKESH 0200   22     270/ 21/ 30 1019.3
$$

TC  - TEMPERATURE IN CELSIUS
VSB - VISIBILITY IN STATUTE MILES
WCI - WIND CHILL INDEX
HX  - HEAT INDEX





USA.gov is the U.S. government's official web portal to all federal, state and local government web resources and services.